Flag for Canada Weather past 2 weeks in Burnaby, British Columbia, Canada

Now
52 °F

Mostly cloudy.


Feels Like: 48 °F
Forecast: 45 / 54 °F
Wind: 10 mph from Northeast

Location: Vancouver International Air-Port

Current Time: Jan 25, 2015 at 2:23:04 AM

Latest Report: Jan 25, 2015 at 1:00 AM


Visibility: 8 mi

Pressure: 30.19 "Hg

Humidity: 94%

Dew point: 50 °F

Location of BurnabyLocation

Historic Weather in Burnaby — Graph

°F

Burnaby temperature yesterday

Maximum temperature yesterday: 54 °F (at 2:00 PM)
Minimum temperature yesterday: 50 °F (at 3:46 AM)
Average temperature yesterday: 52 °F

Past Weeks' High & Low Weather Summary

 TemperatureHumidityPressure
High54 °F (Jan 24, 2:00 PM)100% (Jan 10, 1:00 AM)30.50 "Hg (Jan 10, 1:00 AM)
Low28 °F (Jan 14, 3:00 AM)62% (Jan 16, 3:00 PM)29.46 "Hg (Jan 18, 1:00 AM)
Average43 °F92%30.20 "Hg
* Reported Jan 10 1:00 AM — Jan 25 1:00 AM, Burnaby, Weather by CustomWeather, © 2014

Note: Actual official high and low records may vary slightly from our data, if they occured in-between our weather recording intervals... More about our weather records

Advertising

Burnaby weather history for previous 24 hours

 ConditionsComfort  
Time TempWeatherWind HumidityBarometerVisibility
1:00 AM
Jan 25
52 °FMostly cloudy.10 mph94%30.19 "Hg8 mi
12:00 AM50 °FMostly cloudy.8 mph100%30.18 "Hg15 mi
11:00 PM
Jan 24
50 °FOvercast.7 mph100%30.19 "Hg15 mi
10:00 PM52 °FMostly cloudy.8 mph94%30.18 "Hg15 mi
9:00 PM52 °FLow clouds.6 mph100%30.18 "Hg15 mi
8:00 PM52 °FLow clouds.7 mph100%30.18 "Hg15 mi
7:00 PM54 °FPartly cloudy.9 mph94%30.18 "Hg10 mi
6:00 PM52 °FPartly cloudy.8 mph100%30.19 "Hg10 mi
5:00 PM54 °FPartly cloudy.6 mph94%30.19 "Hg8 mi
4:00 PM54 °FFog.6 mph94%30.20 "Hg6 mi
3:00 PM54 °FFog.6 mph94%30.20 "Hg5 mi
2:00 PM54 °FFog.5 mph94%30.22 "Hg5 mi
1:00 PM52 °FDrizzle. Fog.9 mph100%30.24 "Hg3 mi
12:00 PM52 °FLight rain. More clouds than sun.9 mph100%30.25 "Hg5 mi
11:00 AM52 °FLight rain. More clouds than sun.10 mph100%30.27 "Hg5 mi
10:00 AM52 °FRain. More clouds than sun.9 mph100%30.25 "Hg4 mi
9:00 AM52 °FLight rain. More clouds than sun.10 mph94%30.25 "Hg4 mi
8:00 AM52 °FLight rain. Mostly cloudy.10 mph94%30.26 "Hg3 mi
7:49 AM50 °FLight rain. Mostly cloudy.10 mph100%30.26 "Hg6 mi
7:00 AM50 °FMostly cloudy.10 mph100%30.25 "Hg8 mi
6:00 AM50 °FMostly cloudy.9 mph100%30.26 "Hg15 mi
5:00 AM50 °FLight rain. Mostly cloudy.8 mph100%30.26 "Hg12 mi
4:00 AM50 °FOvercast.9 mph100%30.26 "Hg15 mi
3:46 AM50 °FOvercast.10 mph100%30.26 "Hg15 mi
3:00 AM52 °FOvercast.9 mph94%30.25 "Hg15 mi
2:00 AM52 °FOvercast.10 mph94%30.23 "Hg15 mi
Weather by CustomWeather, © 2014

See weather overviewHow to use our weather pages